Location: Beaver Meadows
(40.3729°N, 105.6140°W)
Time: 10:51:39
(UTC-06:00)

Iridium 67 - Visible Passes

Search period start: 31 March 2015 00:00
Search period end: 10 April 2015 00:00
Orbit: 776 x 779 km, 86.4° (Epoch: 30 March)

Date Brightness Start Highest point End Pass type
(mag) Time Alt. Az. Time Alt. Az. Time Alt. Az.
31 Mar 8.3 02:38:54 12° N 02:38:54 12° N 02:39:17 10° N visible
01 Apr 8.3 02:05:23 13° N 02:05:23 13° N 02:05:52 10° N visible
02 Apr 8.5 01:31:52 11° NNE 01:31:52 11° NNE 01:32:09 10° NNE visible
03 Apr 8.2 02:38:49 12° NNW 02:38:49 12° NNW 02:39:09 10° NNW visible
04 Apr 8.2 02:05:17 13° N 02:05:17 13° N 02:05:55 10° N visible
05 Apr 8.3 01:31:45 13° N 01:31:45 13° N 01:32:22 10° N visible
06 Apr 8.4 00:58:13 11° NNE 00:58:13 11° NNE 00:58:30 10° NNE visible
06 Apr 8.3 02:38:40 11° NNW 02:38:40 11° NNW 02:38:49 10° NNW visible
07 Apr 8.2 02:05:08 14° NNW 02:05:08 14° NNW 02:05:50 10° N visible
08 Apr 8.2 01:31:35 15° N 01:31:35 15° N 01:32:29 10° N visible
09 Apr 8.2 00:58:01 14° NNE 00:58:01 14° NNE 00:58:48 10° NNE visible
